Address 0x68db0a61258e0a661d44bef7d56fb89f7f83ba12

Txn Hash
Block
From
To
Value [Txn Fee]
0xd78820d5d1954f526f40a58acba57cf18d73c8dcbe34381dd94d1ac3e78cc00e95789762021-06-09 10:24:137 days 1 hr ago0x68db0a61258e0a661d44bef7d56fb89f7f83ba12OUT 0xfe7835c0148e26c3efdef8b607e1f2519e3430190 BNB0.00029278
0xace89bdb01c8d9c65c8081db107c09d982f29922e40ef2f9106f19c527bb660c95789422021-06-09 10:22:317 days 1 hr ago0x68db0a61258e0a661d44bef7d56fb89f7f83ba12OUT 0xfe7835c0148e26c3efdef8b607e1f2519e3430190 BNB0.00029278
0x138a68d63be2cd9e1fa2635885aef43141b3fbf8c40bbdeb5512bda1fff9438295787952021-06-09 10:15:107 days 1 hr ago0x68db0a61258e0a661d44bef7d56fb89f7f83ba12OUT 0xfe7835c0148e26c3efdef8b607e1f2519e3430190 BNB0.00029278
0x96f0ce0d1b7524f808c4efe5a7f8d045e87e0f77f3d25ffcca7328860af240e995786332021-06-09 10:06:287 days 1 hr ago0x68db0a61258e0a661d44bef7d56fb89f7f83ba12OUT 0xfe7835c0148e26c3efdef8b607e1f2519e3430190 BNB0.00029278
0xcac08a534c00fc6a3a8c3f3839350472876ddf169a52c3aaa2ea7151de6818e995784762021-06-09 9:58:377 days 1 hr ago0x68db0a61258e0a661d44bef7d56fb89f7f83ba12OUT 0xfe7835c0148e26c3efdef8b607e1f2519e3430190 BNB0.00125666
0x12bbe9c9c86434f82c00f6541a96b2494e11eef6755f4a69deaccc025398ca7a95513432021-06-08 11:21:568 days 29 mins ago0x68db0a61258e0a661d44bef7d56fb89f7f83ba12OUT 0xfe7835c0148e26c3efdef8b607e1f2519e3430190 BNB0.00189961
0x586fb6b7b1af148d78c5f89cfef0e9bfee7105ccd85459f2f84560e259393e0d95513282021-06-08 11:21:118 days 29 mins ago0x68db0a61258e0a661d44bef7d56fb89f7f83ba12OUT 0xbae36c04b80fe01bb1611160b199facb7e3cdc270 BNB0.00044299
0x3eedd6e9e4a75fdf5c5764fa1a731ad3191fa28f3ca863d530be9fa9eb2ed55b95513152021-06-08 11:20:328 days 30 mins ago0x68db0a61258e0a661d44bef7d56fb89f7f83ba12OUT 0x8ce7720fd183aec96b676fd8250724b05b0d7a6f0 BNB0.00044406
0x7758db83a806de96c5f4d3964b04abbf392114a845a52e0d49d0406e97fcff9b95512872021-06-08 11:19:088 days 31 mins ago0x68db0a61258e0a661d44bef7d56fb89f7f83ba12OUT 0x81407cf4336ff5a10ab75a31eed49686dfacb39c0 BNB0.00044354
0x1171f83b08a713e1598f6e29afb3586e21300247f76a028ed7b3b37af0be672195210852021-06-07 10:08:369 days 1 hr ago0x68db0a61258e0a661d44bef7d56fb89f7f83ba12OUT 0x81407cf4336ff5a10ab75a31eed49686dfacb39c0 BNB0.00044354
0xa19f2e721f57a54a93e7f04863db86e61d0cc32b1975ef36963c4524ebf0f0b395198002021-06-07 9:04:219 days 2 hrs ago0x68db0a61258e0a661d44bef7d56fb89f7f83ba12OUT 0x0cc8bcd1e51f9d8612f829d35c4eae5f507d8b740 BNB0.00085096
0x8f2c4571c164aa68b71609409486d550865cd05f8f43621a25e304bde252474195197872021-06-07 9:03:429 days 2 hrs ago0x68db0a61258e0a661d44bef7d56fb89f7f83ba12OUT 0x0cc8bcd1e51f9d8612f829d35c4eae5f507d8b740 BNB0.00079115
0xed96a33e4d66717914235d9bd7e139effb383cacd6ec51cdfc31eb29b7aca74f95197552021-06-07 9:02:069 days 2 hrs ago0x68db0a61258e0a661d44bef7d56fb89f7f83ba12OUT 0x0cc8bcd1e51f9d8612f829d35c4eae5f507d8b740 BNB0.00234022
0xfa42625c701a3df1a3cfd8f9d88eae9301797d908b18b5c7754345faf3c1416095192012021-06-07 8:34:249 days 3 hrs ago0x68db0a61258e0a661d44bef7d56fb89f7f83ba12OUT 0xc592cdaf4cff33f34376cbc010e1b5ac5e2e39700 BNB0.00051193
0x121ebee7dd25f874babebc1def5c56820ba7a4e60b06809916405effa9afa5a695183522021-06-07 7:51:579 days 3 hrs ago0x68db0a61258e0a661d44bef7d56fb89f7f83ba12OUT 0x0cc8bcd1e51f9d8612f829d35c4eae5f507d8b740 BNB0.00279022
0x5c83a747cd841f0a8577d1e5655ef6798f387a27944f34a6ec3a8ada281b636c95183352021-06-07 7:51:069 days 3 hrs ago0x68db0a61258e0a661d44bef7d56fb89f7f83ba12OUT 0x0cc8bcd1e51f9d8612f829d35c4eae5f507d8b740 BNB0.00046538
0x42a6a3c19a107798e3cb7c002f06c5195c3dfe12039ed6d461d968be0c2b3d8095166812021-06-07 6:28:249 days 5 hrs ago0x68db0a61258e0a661d44bef7d56fb89f7f83ba12OUT 0x0cc8bcd1e51f9d8612f829d35c4eae5f507d8b740 BNB0.0037484
0xc90a6f7639c0b8d540efc7e84e4585275818b770c6b1f027eabe1bf22852e63b95163952021-06-07 6:14:069 days 5 hrs ago0x68db0a61258e0a661d44bef7d56fb89f7f83ba12OUT0x39de56c7a739a6e74fc02de8d353c5eb7f176f442 BNB0.00021
0x2792b9ad6e92fed789f5899ce1e98ea972f5666bd55a92b9a140ef858687ff5795161302021-06-07 6:00:519 days 5 hrs ago0x68db0a61258e0a661d44bef7d56fb89f7f83ba12OUT 0x0cc8bcd1e51f9d8612f829d35c4eae5f507d8b740 BNB0.00170774
0x0a5fe6d0788ba3dd02eaabdf71988da7acc986deafe2a922855a31e62ac4423495154502021-06-07 5:26:519 days 6 hrs ago0x68db0a61258e0a661d44bef7d56fb89f7f83ba12OUT 0xa19461d742a6be54237e488ff9ee47c6f8a80b580 BNB0.00044354
0x708a439372c1aa758d9715d97f2ced02cfefd205a8d7627df1995766edef11f090350982021-05-21 11:50:4126 days ago0x68db0a61258e0a661d44bef7d56fb89f7f83ba12OUT 0xbae36c04b80fe01bb1611160b199facb7e3cdc270 BNB0.00044299
0x2c9f804f9b3c3072dd2ed6bee3b677852c75f9f08391f2c899fa7f457a098abf89799052021-05-19 13:51:0227 days 21 hrs ago0x68db0a61258e0a661d44bef7d56fb89f7f83ba12OUT 0x1fb29cf0915a5a909277542644fe9a57b83e59e00 BNB0.00145671
0x2da5975012736b800118a96bfa26903b5af79badac6999dae6d0a2a869c6dbc789795722021-05-19 13:34:2327 days 22 hrs ago0x68db0a61258e0a661d44bef7d56fb89f7f83ba12OUT 0x1fb29cf0915a5a909277542644fe9a57b83e59e00 BNB0.00162997
0x56f1f130295e56af445f5074e56867f2aabfbb5ff5f7474a78eb4c99b3f8ccc889794512021-05-19 13:28:2027 days 22 hrs ago0x68db0a61258e0a661d44bef7d56fb89f7f83ba12OUT 0x1fb29cf0915a5a909277542644fe9a57b83e59e00 BNB0.00134309
0xbdbc0384b3404f03896e775d361bea9929f180c17838d6af87b42572a9d18b6689794092021-05-19 13:26:1427 days 22 hrs ago0x68db0a61258e0a661d44bef7d56fb89f7f83ba12OUT 0x6416fddcf465e05780fd09df035d73535fedac7b0 BNB0.00044354
[ Download CSV Export 
Parent Txn Hash Block From To Value
Loading

Contract Name:
0 BNB

Compiler Version
0

Optimization Enabled:
0 BNB

Other Settings:
-NA-
Block Transaction Gas Used Reward
Age Block Fee Address BC Fee Address Voting Power Jailed Incoming
Block Uncle Number Difficulty Gas Used Reward
Loading